カタログに戻る

DELTA 1 DEB

運用中SSO
NORAD 26835·DEBRIS·🇺🇸 United States

打ち上げ Jun 12, 1975 から Vandenberg Space Force Base

Loading…

次のパス (今後24時間)

TLE

最新Source: Space-Track

元期: Sep 14, 2026, 13:31 UTC

1 26835U 75052KP  26257.56355576  .00001122  00000-0  11065-2 0  9998
2 26835  99.6923 111.5878 0039447 273.8699 104.3960 13.80698745732899

AllMySatでDELTA 1 DEBをリアルタイム追跡

Download on the App Store